• In United Kingdom
  • List of Countries
  • For 7 days
  • Water Temperature
  • Satellite Maps
  • Weather Map
  • Weather Widgets
  • user-avatar
    Login

    Hourly Weather Hobart

    Today, 20 September, Thursday

    Time Temperature Precipitation Wind Pressure Humidity
    00:00 +1°C° 0 mm 3 mps 746 mmHg 92%
    01:00 +1°C° 0 mm 3 mps 746 mmHg 94%
    02:00 +1°C° 0 mm 3 mps 746 mmHg 94%
    03:00 +1°C° 0 mm 3 mps 746 mmHg 93%
    04:00 +2°C° 0 mm 3 mps 746 mmHg 93%
    05:00 +2°C° 0 mm 3 mps 746 mmHg 91%
    06:00 +3°C° 0 mm 3 mps 746 mmHg 89%
    07:00 +4°C° 0 mm 3 mps 746 mmHg 86%
    08:00 +6°C° 0 mm 4 mps 747 mmHg 77%
    09:00 +8°C° 0 mm 4 mps 747 mmHg 68%
    10:00 +12°C° 0 mm 4 mps 747 mmHg 59%
    11:00 +12°C° 0 mm 4 mps 747 mmHg 57%
    12:00 +13°C° 0 mm 4 mps 746 mmHg 56%
    13:00 +14°C° 0 mm 4 mps 746 mmHg 55%
    14:00 +14°C° 0 mm 4 mps 747 mmHg 58%
    15:00 +14°C° 0 mm 4 mps 747 mmHg 60%
    16:00 +13°C° 0 mm 4 mps 747 mmHg 62%
    17:00 +12°C° 0 mm 3 mps 747 mmHg 70%
    18:00 +10°C° 0 mm 3 mps 748 mmHg 78%
    19:00 +9°C° 0 mm 2 mps 748 mmHg 86%
    20:00 +9°C° 0 mm 3 mps 748 mmHg 88%
    21:00 +8°C° 0 mm 3 mps 749 mmHg 90%
    22:00 +8°C° 0 mm 3 mps 749 mmHg 92%
    23:00 +8°C° 0 mm 3 mps 749 mmHg 93%

    Tomorrow, 21 September, Friday

    Time Temperature Precipitation Wind Pressure Humidity
    00:00 +8°C° 0 mm 3 mps 749 mmHg 93%
    01:00 +8°C° 0 mm 3 mps 750 mmHg 93%
    02:00 +8°C° 0 mm 3 mps 750 mmHg 94%
    03:00 +7°C° 0 mm 3 mps 750 mmHg 94%
    04:00 +7°C° 0 mm 3 mps 750 mmHg 94%
    05:00 +8°C° 0 mm 3 mps 750 mmHg 92%
    06:00 +8°C° 0 mm 3 mps 750 mmHg 90%
    07:00 +8°C° 0 mm 3 mps 751 mmHg 88%
    08:00 +10°C° 0 mm 3 mps 751 mmHg 79%
    09:00 +12°C° 0 mm 3 mps 751 mmHg 71%
    10:00 +14°C° 0 mm 3 mps 751 mmHg 63%
    11:00 +14°C° 0 mm 4 mps 751 mmHg 61%
    12:00 +15°C° 0 mm 4 mps 751 mmHg 59%
    13:00 +17°C° 0 mm 4 mps 750 mmHg 57%
    14:00 +15°C° 0 mm 4 mps 750 mmHg 58%
    15:00 +15°C° 0 mm 4 mps 750 mmHg 59%
    16:00 +15°C° 0 mm 4 mps 750 mmHg 59%
    17:00 +13°C° 0 mm 4 mps 750 mmHg 66%
    18:00 +11°C° 0 mm 3 mps 750 mmHg 73%
    19:00 +10°C° 0 mm 3 mps 751 mmHg 79%
    20:00 +9°C° 0 mm 3 mps 751 mmHg 80%
    21:00 +9°C° 0 mm 3 mps 751 mmHg 81%
    22:00 +8°C° 0 mm 3 mps 751 mmHg 82%
    23:00 +8°C° 0 mm 3 mps 751 mmHg 82%

    Day after tomorrow, 22 September, Saturday

    Time Temperature Precipitation Wind Pressure Humidity
    00:00 +8°C° 0 mm 3 mps 751 mmHg 81%
    01:00 +7°C° 0 mm 4 mps 751 mmHg 80%
    02:00 +7°C° 0 mm 4 mps 751 mmHg 80%
    03:00 +7°C° 0 mm 4 mps 751 mmHg 80%
    04:00 +7°C° 0 mm 4 mps 751 mmHg 80%
    05:00 +7°C° 0 mm 4 mps 751 mmHg 79%
    06:00 +8°C° 0 mm 4 mps 751 mmHg 78%
    07:00 +8°C° 0 mm 4 mps 751 mmHg 77%
    08:00 +11°C° 0 mm 4 mps 750 mmHg 74%
    09:00 +12°C° 0 mm 5 mps 750 mmHg 71%
    10:00 +13°C° 0 mm 5 mps 750 mmHg 68%
    11:00 +13°C° 0.1 mm 5 mps 750 mmHg 69%
    12:00 +13°C° 0.1 mm 6 mps 750 mmHg 70%
    13:00 +13°C° 0.1 mm 6 mps 750 mmHg 72%
    14:00 +12°C° 0.3 mm 5 mps 750 mmHg 76%
    15:00 +10°C° 0.3 mm 5 mps 750 mmHg 80%
    16:00 +9°C° 0.3 mm 5 mps 750 mmHg 85%
    17:00 +8°C° 0 mm 4 mps 751 mmHg 86%
    18:00 +7°C° 0 mm 4 mps 751 mmHg 87%
    19:00 +6°C° 0 mm 4 mps 752 mmHg 88%
    20:00 +5°C° 0.1 mm 4 mps 752 mmHg 88%
    21:00 +5°C° 0.1 mm 4 mps 752 mmHg 88%
    22:00 +3°C° 0.1 mm 5 mps 753 mmHg 88%
    23:00 +3°C° 0 mm 5 mps 753 mmHg 88%

    23 September, Sunday

    Time Temperature Precipitation Wind Pressure Humidity
    00:00 +2°C° 0 mm 5 mps 753 mmHg 88%
    01:00 +2°C° 0 mm 5 mps 753 mmHg 88%
    02:00 +2°C° 0 mm 5 mps 752 mmHg 85%
    03:00 +2°C° 0 mm 6 mps 752 mmHg 83%
    04:00 +2°C° 0 mm 6 mps 752 mmHg 80%
    05:00 +3°C° 0.1 mm 6 mps 753 mmHg 80%
    06:00 +3°C° 0.1 mm 6 mps 753 mmHg 80%
    07:00 +3°C° 0.1 mm 6 mps 754 mmHg 79%
    08:00 +4°C° 0.1 mm 7 mps 754 mmHg 72%
    09:00 +5°C° 0.1 mm 7 mps 755 mmHg 65%
    10:00 +5°C° 0.1 mm 7 mps 755 mmHg 57%
    11:00 +6°C° 0.1 mm 7 mps 755 mmHg 55%
    12:00 +6°C° 0.1 mm 7 mps 756 mmHg 53%
    13:00 +7°C° 0.1 mm 6 mps 756 mmHg 51%
    14:00 +7°C° 0 mm 6 mps 756 mmHg 52%
    15:00 +7°C° 0 mm 6 mps 756 mmHg 54%
    16:00 +5°C° 0 mm 6 mps 757 mmHg 55%
    17:00 +5°C° 0 mm 5 mps 757 mmHg 61%
    18:00 +4°C° 0 mm 4 mps 758 mmHg 68%
    19:00 +1°C° 0 mm 4 mps 758 mmHg 74%
    20:00 +1°C° 0 mm 3 mps 759 mmHg 79%
    21:00 0°C° 0 mm 3 mps 759 mmHg 83%
    22:00 -1°C° 0 mm 3 mps 759 mmHg 87%
    23:00 -1°C° 0 mm 3 mps 759 mmHg 88%

    24 September, Monday

    Time Temperature Precipitation Wind Pressure Humidity
    00:00 -1°C° 0 mm 3 mps 759 mmHg 89%
    01:00 -1°C° 0 mm 3 mps 758 mmHg 91%
    02:00 -1°C° 0 mm 3 mps 758 mmHg 91%
    03:00 -1°C° 0 mm 3 mps 758 mmHg 91%
    04:00 -1°C° 0 mm 3 mps 757 mmHg 92%
    05:00 0°C° 0 mm 3 mps 758 mmHg 88%
    06:00 0°C° 0 mm 3 mps 758 mmHg 85%
    07:00 +1°C° 0 mm 3 mps 758 mmHg 81%
    08:00 +3°C° 0 mm 3 mps 758 mmHg 73%
    09:00 +5°C° 0 mm 4 mps 758 mmHg 64%
    10:00 +7°C° 0 mm 4 mps 757 mmHg 56%
    11:00 +7°C° 0 mm 4 mps 757 mmHg 55%
    12:00 +8°C° 0 mm 4 mps 757 mmHg 53%
    13:00 +8°C° 0 mm 4 mps 756 mmHg 52%
    14:00 +8°C° 0 mm 4 mps 756 mmHg 53%
    15:00 +8°C° 0 mm 5 mps 756 mmHg 55%
    16:00 +8°C° 0 mm 5 mps 755 mmHg 57%
    17:00 +6°C° 0 mm 4 mps 756 mmHg 65%
    18:00 +5°C° 0 mm 4 mps 756 mmHg 73%
    19:00 +3°C° 0 mm 4 mps 756 mmHg 81%
    20:00 +3°C° 0 mm 4 mps 756 mmHg 85%
    21:00 +1°C° 0 mm 4 mps 756 mmHg 90%
    22:00 0°C° 0 mm 4 mps 756 mmHg 94%
    23:00 0°C° 0 mm 4 mps 756 mmHg 95%

    25 September, Tuesday

    Time Temperature Precipitation Wind Pressure Humidity
    00:00 0°C° 0 mm 4 mps 755 mmHg 95%
    01:00 -1°C° 0 mm 4 mps 755 mmHg 96%
    02:00 -1°C° 0 mm 4 mps 755 mmHg 96%
    03:00 -1°C° 0 mm 4 mps 755 mmHg 96%
    04:00 -1°C° 0 mm 4 mps 754 mmHg 96%
    05:00 0°C° 0 mm 4 mps 754 mmHg 93%
    06:00 +1°C° 0 mm 4 mps 754 mmHg 91%
    07:00 +1°C° 0 mm 4 mps 754 mmHg 88%
    08:00 +4°C° 0 mm 4 mps 754 mmHg 77%
    09:00 +7°C° 0 mm 4 mps 754 mmHg 67%
    10:00 +10°C° 0 mm 4 mps 754 mmHg 57%
    11:00 +10°C° 0 mm 4 mps 754 mmHg 56%
    12:00 +11°C° 0 mm 4 mps 753 mmHg 55%
    13:00 +11°C° 0 mm 4 mps 753 mmHg 54%
    14:00 +10°C° 0 mm 5 mps 752 mmHg 56%
    15:00 +9°C° 0 mm 5 mps 752 mmHg 58%
    16:00 +9°C° 0 mm 5 mps 752 mmHg 60%
    17:00 +7°C° 0 mm 4 mps 752 mmHg 69%
    18:00 +6°C° 0 mm 4 mps 752 mmHg 77%
    19:00 +4°C° 0 mm 4 mps 753 mmHg 85%
    20:00 +4°C° 0 mm 4 mps 753 mmHg 89%
    21:00 +3°C° 0 mm 4 mps 753 mmHg 93%
    22:00 +2°C° 0 mm 3 mps 753 mmHg 97%
    23:00 +2°C° 0 mm 3 mps 753 mmHg 97%
    Show more